Overview Statistics Trail Chart Weather Telemetry Raw packets
 

This is the latest recevied weather packets stored in our database for station/object KB0BDN-13. If no packets are shown the sender has not sent any weather packets the latest 10 day(s).

<< 65 66 67 68 69 >>
Time Temp. Humidity Pressure Rain* Wind** Luminosity Snow
1787851754 19.44° C 70% 1010.5 hPa 0 mm - - -
1787850996 20° C 67% 1010.5 hPa 0 mm - - -
1787850854 20° C 67% 1010.6 hPa 0 mm - - -
1787850096 21.11° C 66% 1010.6 hPa 0 mm - - -
1787849954 21.11° C 64% 1010.8 hPa 0 mm - - -
1787849195 20.56° C 65% 1010.8 hPa 0 mm - - -
1787849054 20.56° C 65% 1010.9 hPa 0 mm - - -
1787848295 20.56° C 68% 1010.9 hPa 0 mm - - -
1787848154 20.56° C 70% 1010.9 hPa 0 mm - - -
1787847395 20° C 71% 1010.9 hPa 0 mm - - -
1787847253 19.44° C 71% 1011 hPa 0 mm - - -
1787846495 20.56° C 70% 1011 hPa 0 mm - - -
1787846354 20.56° C 70% 1010.7 hPa 0 mm - - -
1787845595 20° C 71% 1010.7 hPa 0 mm - - -
1787844695 19.44° C 73% 1010.5 hPa 0 mm - - -
1787844554 19.44° C 73% 1010.5 hPa 0 mm - - -
1787843795 18.89° C 74% 1010.5 hPa 0 mm - - -
1787842895 18.33° C 79% 1010.4 hPa 0 mm - - -
1787842754 18.33° C 80% 1010.5 hPa 0 mm - - -
1787841995 17.22° C 87% 1010.5 hPa 0 mm - - -
1787841853 17.22° C 90% 1010.5 hPa 0 mm - - -
1787841095 16.11° C 99% 1010.5 hPa 0 mm - - -
1787840195 15° C 99% 1010.5 hPa 0 mm - - -
1787840054 15° C 99% 1010.7 hPa 0 mm - - -
1787839295 14.44° C 99% 1010.7 hPa 0 mm - - -

* Rain latest hour (hover to see other rain measurements)
** Current wind speed in m/s (hover to see current wind gust speed)